Year,Month,Day,Hour,Minute,Value (Times are PST for temperature in C)
2016,06,17,00,00,11.00
2016,06,17,00,01,10.90
2016,06,17,00,02,10.90
2016,06,17,00,03,10.90
2016,06,17,00,04,10.90
2016,06,17,00,05,10.90
2016,06,17,00,06,10.80
2016,06,17,00,07,10.80
2016,06,17,00,08,10.80
2016,06,17,00,09,10.80
2016,06,17,00,10,10.80
2016,06,17,00,11,10.80
2016,06,17,00,12,10.80
2016,06,17,00,13,10.70
2016,06,17,00,14,10.70
2016,06,17,00,15,10.70
2016,06,17,00,16,10.70
2016,06,17,00,17,10.70
2016,06,17,00,18,10.70
2016,06,17,00,19,10.60
2016,06,17,00,20,10.60
2016,06,17,00,21,10.60
2016,06,17,00,22,10.60
2016,06,17,00,23,10.50
2016,06,17,00,24,10.50
2016,06,17,00,25,10.50
2016,06,17,00,26,10.50
2016,06,17,00,27,10.40
2016,06,17,00,28,10.40
2016,06,17,00,29,10.40
2016,06,17,00,30,10.40
2016,06,17,00,31,10.30
2016,06,17,00,32,10.30
2016,06,17,00,33,10.30
2016,06,17,00,34,10.30
2016,06,17,00,35,10.30
2016,06,17,00,36,10.30
2016,06,17,00,37,10.30
2016,06,17,00,38,10.30
2016,06,17,00,39,10.20
2016,06,17,00,40,10.20
2016,06,17,00,41,10.20
2016,06,17,00,42,10.20
2016,06,17,00,43,10.20
2016,06,17,00,44,10.20
2016,06,17,00,45,10.20
2016,06,17,00,46,10.20
2016,06,17,00,47,10.20
2016,06,17,00,48,10.20
2016,06,17,00,49,10.20
2016,06,17,00,50,10.20
2016,06,17,00,51,10.10
2016,06,17,00,52,10.10
2016,06,17,00,53,10.10
2016,06,17,00,54,10.10
2016,06,17,00,55,10.10
2016,06,17,00,56,10.10
2016,06,17,00,57,10.10
2016,06,17,00,58,10.00
2016,06,17,00,59,10.00
2016,06,17,01,00,10.00
2016,06,17,01,01,10.00
2016,06,17,01,02,10.00
2016,06,17,01,03,9.90
2016,06,17,01,04,9.90
2016,06,17,01,05,9.90
2016,06,17,01,06,9.90
2016,06,17,01,07,9.90
2016,06,17,01,08,9.90
2016,06,17,01,09,9.80
2016,06,17,01,10,9.80
2016,06,17,01,11,9.80
2016,06,17,01,12,9.80
2016,06,17,01,13,9.80
2016,06,17,01,14,9.80
2016,06,17,01,15,9.80
2016,06,17,01,16,9.80
2016,06,17,01,17,9.80
2016,06,17,01,18,9.80
2016,06,17,01,19,9.70
2016,06,17,01,20,9.70
2016,06,17,01,21,9.70
2016,06,17,01,22,9.70
2016,06,17,01,23,9.70
2016,06,17,01,24,9.70
2016,06,17,01,25,9.70
2016,06,17,01,26,9.70
2016,06,17,01,27,9.70
2016,06,17,01,28,9.70
2016,06,17,01,29,9.70
2016,06,17,01,30,9.80
2016,06,17,01,31,9.70
2016,06,17,01,32,9.70
2016,06,17,01,33,9.70
2016,06,17,01,34,9.70
2016,06,17,01,35,9.70
2016,06,17,01,36,9.70
2016,06,17,01,37,9.70
2016,06,17,01,38,9.70
2016,06,17,01,39,9.60
2016,06,17,01,40,9.60
2016,06,17,01,41,9.60
2016,06,17,01,42,9.60
2016,06,17,01,43,9.60
2016,06,17,01,44,9.50
2016,06,17,01,45,9.50
2016,06,17,01,46,9.50
2016,06,17,01,47,9.40
2016,06,17,01,48,9.40
2016,06,17,01,49,9.40
2016,06,17,01,50,9.40
2016,06,17,01,51,9.30
2016,06,17,01,52,9.30
2016,06,17,01,53,9.30
2016,06,17,01,54,9.30
2016,06,17,01,55,9.30
2016,06,17,01,56,9.30
2016,06,17,01,57,9.20
2016,06,17,01,58,9.20
2016,06,17,01,59,9.20
2016,06,17,02,00,9.20
2016,06,17,02,01,9.20
2016,06,17,02,02,9.20
2016,06,17,02,03,9.20
2016,06,17,02,04,9.10
2016,06,17,02,05,9.10
2016,06,17,02,06,9.10
2016,06,17,02,07,9.10
2016,06,17,02,08,9.10
2016,06,17,02,09,9.10
2016,06,17,02,10,9.10
2016,06,17,02,11,9.10
2016,06,17,02,12,9.10
2016,06,17,02,13,9.10
2016,06,17,02,14,9.10
2016,06,17,02,15,9.00
2016,06,17,02,16,9.00
2016,06,17,02,17,9.00
2016,06,17,02,18,9.00
2016,06,17,02,19,9.00
2016,06,17,02,20,8.90
2016,06,17,02,21,8.90
2016,06,17,02,22,8.90
2016,06,17,02,23,8.90
2016,06,17,02,24,8.90
2016,06,17,02,25,8.90
2016,06,17,02,26,8.90
2016,06,17,02,27,8.90
2016,06,17,02,28,8.90
2016,06,17,02,29,8.90
2016,06,17,02,30,8.90
2016,06,17,02,31,8.90
2016,06,17,02,32,8.90
2016,06,17,02,33,8.90
2016,06,17,02,34,8.80
2016,06,17,02,35,8.80
2016,06,17,02,36,8.80
2016,06,17,02,37,8.80
2016,06,17,02,38,8.80
2016,06,17,02,39,8.80
2016,06,17,02,40,8.80
2016,06,17,02,41,8.90
2016,06,17,02,42,8.90
2016,06,17,02,43,8.90
2016,06,17,02,44,8.90
2016,06,17,02,45,8.90
2016,06,17,02,46,8.90
2016,06,17,02,47,8.90
2016,06,17,02,48,8.90
2016,06,17,02,49,8.80
2016,06,17,02,50,8.80
2016,06,17,02,51,8.80
2016,06,17,02,52,8.80
2016,06,17,02,53,8.80
2016,06,17,02,54,8.80
2016,06,17,02,55,8.80
2016,06,17,02,56,8.80
2016,06,17,02,57,8.80
2016,06,17,02,58,8.80
2016,06,17,02,59,8.80
2016,06,17,03,00,8.80
2016,06,17,03,01,8.80
2016,06,17,03,02,8.80
2016,06,17,03,03,8.70
2016,06,17,03,04,8.70
2016,06,17,03,05,8.70
2016,06,17,03,06,8.70
2016,06,17,03,07,8.70
2016,06,17,03,08,8.70
2016,06,17,03,09,8.70
2016,06,17,03,10,8.70
2016,06,17,03,11,8.70
2016,06,17,03,12,8.70
2016,06,17,03,13,8.70
2016,06,17,03,14,8.70
2016,06,17,03,15,8.70
2016,06,17,03,16,8.70
2016,06,17,03,17,8.70
2016,06,17,03,18,8.70
2016,06,17,03,19,8.70
2016,06,17,03,20,8.70
2016,06,17,03,21,8.70
2016,06,17,03,22,8.70
2016,06,17,03,23,8.70
2016,06,17,03,24,8.70
2016,06,17,03,25,8.70
2016,06,17,03,26,8.70
2016,06,17,03,27,8.70
2016,06,17,03,28,8.70
2016,06,17,03,29,8.70
2016,06,17,03,30,8.70
2016,06,17,03,31,8.60
2016,06,17,03,32,8.60
2016,06,17,03,33,8.60
2016,06,17,03,34,8.60
2016,06,17,03,35,8.60
2016,06,17,03,36,8.60
2016,06,17,03,37,8.60
2016,06,17,03,38,8.60
2016,06,17,03,39,8.60
2016,06,17,03,40,8.60
2016,06,17,03,41,8.60
2016,06,17,03,42,8.60
2016,06,17,03,43,8.60
2016,06,17,03,44,8.60
2016,06,17,03,45,8.60
2016,06,17,03,46,8.60
2016,06,17,03,47,8.60
2016,06,17,03,48,8.50
2016,06,17,03,49,8.50
2016,06,17,03,50,8.50
2016,06,17,03,51,8.50
2016,06,17,03,52,8.50
2016,06,17,03,53,8.40
2016,06,17,03,54,8.40
2016,06,17,03,55,8.40
2016,06,17,03,56,8.40
2016,06,17,03,57,8.40
2016,06,17,03,58,8.40
2016,06,17,03,59,8.40
2016,06,17,04,00,8.40
2016,06,17,04,01,8.40
2016,06,17,04,02,8.40
2016,06,17,04,03,8.40
2016,06,17,04,04,8.40
2016,06,17,04,05,8.40
2016,06,17,04,06,8.40
2016,06,17,04,07,8.40
2016,06,17,04,08,8.40
2016,06,17,04,09,8.40
2016,06,17,04,10,8.40
2016,06,17,04,11,8.40
2016,06,17,04,12,8.40
2016,06,17,04,13,8.30
2016,06,17,04,14,8.30
2016,06,17,04,15,8.30
2016,06,17,04,16,8.30
2016,06,17,04,17,8.30
2016,06,17,04,18,8.20
2016,06,17,04,19,8.20
2016,06,17,04,20,8.20
2016,06,17,04,21,8.20
2016,06,17,04,22,8.20
2016,06,17,04,23,8.20
2016,06,17,04,24,8.20
2016,06,17,04,25,8.20
2016,06,17,04,26,8.20
2016,06,17,04,27,8.20
2016,06,17,04,28,8.10
2016,06,17,04,29,8.10
2016,06,17,04,30,8.10
2016,06,17,04,31,8.10
2016,06,17,04,32,8.10
2016,06,17,04,33,8.10
2016,06,17,04,34,8.10
2016,06,17,04,35,8.00
2016,06,17,04,36,8.00
2016,06,17,04,37,8.00
2016,06,17,04,38,7.90
2016,06,17,04,39,7.90
2016,06,17,04,40,7.90
2016,06,17,04,41,7.90
2016,06,17,04,42,7.90
2016,06,17,04,43,7.90
2016,06,17,04,44,7.90
2016,06,17,04,45,7.90
2016,06,17,04,46,7.90
2016,06,17,04,47,7.80
2016,06,17,04,48,7.80
2016,06,17,04,49,7.80
2016,06,17,04,50,7.80
2016,06,17,04,51,7.80
2016,06,17,04,52,7.80
2016,06,17,04,53,7.80
2016,06,17,04,54,7.80
2016,06,17,04,55,7.80
2016,06,17,04,56,7.80
2016,06,17,04,57,7.80
2016,06,17,04,58,7.80
2016,06,17,04,59,7.80
2016,06,17,05,00,7.80
2016,06,17,05,01,7.80
2016,06,17,05,02,7.80
2016,06,17,05,03,7.80
2016,06,17,05,04,7.70
2016,06,17,05,05,7.70
2016,06,17,05,06,7.70
2016,06,17,05,07,7.70
2016,06,17,05,08,7.70
2016,06,17,05,09,7.70
2016,06,17,05,10,7.70
2016,06,17,05,11,7.70
2016,06,17,05,12,7.70
2016,06,17,05,13,7.70
2016,06,17,05,14,7.70
2016,06,17,05,15,7.70
2016,06,17,05,16,7.70
2016,06,17,05,17,7.70
2016,06,17,05,18,7.70
2016,06,17,05,19,7.60
2016,06,17,05,20,7.60
2016,06,17,05,21,7.60
2016,06,17,05,22,7.60
2016,06,17,05,23,7.60
2016,06,17,05,24,7.60
2016,06,17,05,25,7.50
2016,06,17,05,26,7.50
2016,06,17,05,27,7.50
2016,06,17,05,28,7.50
2016,06,17,05,29,7.50
2016,06,17,05,30,7.50
2016,06,17,05,31,7.50
2016,06,17,05,32,7.40
2016,06,17,05,33,7.40
2016,06,17,05,34,7.40
2016,06,17,05,35,7.40
2016,06,17,05,36,7.40
2016,06,17,05,37,7.40
2016,06,17,05,38,7.40
2016,06,17,05,39,7.40
2016,06,17,05,40,7.40
2016,06,17,05,41,7.40
2016,06,17,05,42,7.40
2016,06,17,05,43,7.40
2016,06,17,05,44,7.40
2016,06,17,05,45,7.40
2016,06,17,05,46,7.40
2016,06,17,05,47,7.40
2016,06,17,05,48,7.40
2016,06,17,05,49,7.40
2016,06,17,05,50,7.40
2016,06,17,05,51,7.40
2016,06,17,05,52,7.50
2016,06,17,05,53,7.50
2016,06,17,05,54,7.50
2016,06,17,05,55,7.60
2016,06,17,05,56,7.60
2016,06,17,05,57,7.60
2016,06,17,05,58,7.60
2016,06,17,05,59,7.60
2016,06,17,06,00,7.70
2016,06,17,06,01,7.70
2016,06,17,06,02,7.70
2016,06,17,06,03,7.70
2016,06,17,06,04,7.70
2016,06,17,06,05,7.70
2016,06,17,06,06,7.70
2016,06,17,06,07,7.80
2016,06,17,06,08,7.80
2016,06,17,06,09,7.80
2016,06,17,06,10,7.80
2016,06,17,06,11,7.90
2016,06,17,06,12,7.90
2016,06,17,06,13,8.00
2016,06,17,06,14,8.00
2016,06,17,06,15,8.00
2016,06,17,06,16,8.10
2016,06,17,06,17,8.10
2016,06,17,06,18,8.10
2016,06,17,06,19,8.20
2016,06,17,06,20,8.20
2016,06,17,06,21,8.20
2016,06,17,06,22,8.20
2016,06,17,06,23,8.30
2016,06,17,06,24,8.30
2016,06,17,06,25,8.40
2016,06,17,06,26,8.40
2016,06,17,06,27,8.50
2016,06,17,06,28,8.60
2016,06,17,06,29,8.60
2016,06,17,06,30,8.70
2016,06,17,06,31,8.80
2016,06,17,06,32,8.90
2016,06,17,06,33,9.00
2016,06,17,06,34,9.10
2016,06,17,06,35,9.10
2016,06,17,06,36,9.20
2016,06,17,06,37,9.30
2016,06,17,06,38,9.40
2016,06,17,06,39,9.40
2016,06,17,06,40,9.50
2016,06,17,06,41,9.60
2016,06,17,06,42,9.60
2016,06,17,06,43,9.70
2016,06,17,06,44,9.70
2016,06,17,06,45,9.70
2016,06,17,06,46,9.80
2016,06,17,06,47,9.80
2016,06,17,06,48,9.90
2016,06,17,06,49,10.00
2016,06,17,06,50,10.00
2016,06,17,06,51,10.10
2016,06,17,06,52,10.20
2016,06,17,06,53,10.20
2016,06,17,06,54,10.20
2016,06,17,06,55,10.20
2016,06,17,06,56,10.30
2016,06,17,06,57,10.30
2016,06,17,06,58,10.30
2016,06,17,06,59,10.30
2016,06,17,07,00,10.30
2016,06,17,07,01,10.40
2016,06,17,07,02,10.40
2016,06,17,07,03,10.50
2016,06,17,07,04,10.60
2016,06,17,07,05,10.60
2016,06,17,07,06,10.70
2016,06,17,07,07,10.80
2016,06,17,07,08,10.80
2016,06,17,07,09,10.80
2016,06,17,07,10,10.90
2016,06,17,07,11,10.90
2016,06,17,07,12,10.90
2016,06,17,07,13,10.90
2016,06,17,07,14,10.90
2016,06,17,07,15,11.00
2016,06,17,07,16,11.00
2016,06,17,07,17,11.00
2016,06,17,07,18,11.00
2016,06,17,07,19,11.00
2016,06,17,07,20,11.10
2016,06,17,07,21,11.10
2016,06,17,07,22,11.20
2016,06,17,07,23,11.20
2016,06,17,07,24,11.30
2016,06,17,07,25,11.40
2016,06,17,07,26,11.40
2016,06,17,07,27,11.50
2016,06,17,07,28,11.60
2016,06,17,07,29,11.70
2016,06,17,07,30,11.70
2016,06,17,07,31,11.80
2016,06,17,07,32,11.80
2016,06,17,07,33,11.90
2016,06,17,07,34,12.00
2016,06,17,07,35,12.00
2016,06,17,07,36,12.10
2016,06,17,07,37,12.20
2016,06,17,07,38,12.30
2016,06,17,07,39,12.30
2016,06,17,07,40,12.30
2016,06,17,07,41,12.40
2016,06,17,07,42,12.50
2016,06,17,07,43,12.50
2016,06,17,07,44,12.60
2016,06,17,07,45,12.60
2016,06,17,07,46,12.70
2016,06,17,07,47,12.80
2016,06,17,07,48,12.80
2016,06,17,07,49,12.80
2016,06,17,07,50,12.80
2016,06,17,07,51,12.90
2016,06,17,07,52,12.90
2016,06,17,07,53,12.90
2016,06,17,07,54,12.90
2016,06,17,07,55,13.00
2016,06,17,07,56,13.10
2016,06,17,07,57,13.10
2016,06,17,07,58,13.20
2016,06,17,07,59,13.20
2016,06,17,08,00,13.20
2016,06,17,08,01,13.30
2016,06,17,08,02,13.30
2016,06,17,08,03,13.30
2016,06,17,08,04,13.40
2016,06,17,08,05,13.40
2016,06,17,08,06,13.50
2016,06,17,08,07,13.60
2016,06,17,08,08,13.60
2016,06,17,08,09,13.60
2016,06,17,08,10,13.60
2016,06,17,08,11,13.60
2016,06,17,08,12,13.60
2016,06,17,08,13,13.60
2016,06,17,08,14,13.60
2016,06,17,08,15,13.70
2016,06,17,08,16,13.60
2016,06,17,08,17,13.60
2016,06,17,08,18,13.60
2016,06,17,08,19,13.60
2016,06,17,08,20,13.60
2016,06,17,08,21,13.60
2016,06,17,08,22,13.60
2016,06,17,08,23,13.60
2016,06,17,08,24,13.60
2016,06,17,08,25,13.60
2016,06,17,08,26,13.60
2016,06,17,08,27,13.60
2016,06,17,08,28,13.60
2016,06,17,08,29,13.60
2016,06,17,08,30,13.60
2016,06,17,08,31,13.60
2016,06,17,08,32,13.60
2016,06,17,08,33,13.60
2016,06,17,08,34,13.60
2016,06,17,08,35,13.60
2016,06,17,08,36,13.60
2016,06,17,08,37,13.60
2016,06,17,08,38,13.60
2016,06,17,08,39,13.50
2016,06,17,08,40,13.50
2016,06,17,08,41,13.40
2016,06,17,08,42,13.40
2016,06,17,08,43,13.40
2016,06,17,08,44,13.40
2016,06,17,08,45,13.40
2016,06,17,08,46,13.40
2016,06,17,08,47,13.40
2016,06,17,08,48,13.30
2016,06,17,08,49,13.30
2016,06,17,08,50,13.30
2016,06,17,08,51,13.30
2016,06,17,08,52,13.40
2016,06,17,08,53,13.40
2016,06,17,08,54,13.40
2016,06,17,08,55,13.50
2016,06,17,08,56,13.50
2016,06,17,08,57,13.60
2016,06,17,08,58,13.70
2016,06,17,08,59,13.70
2016,06,17,09,00,13.80
2016,06,17,09,01,13.80
2016,06,17,09,02,13.80
2016,06,17,09,03,13.80
2016,06,17,09,04,13.90
2016,06,17,09,05,13.90
2016,06,17,09,06,13.90
2016,06,17,09,07,13.90
2016,06,17,09,08,14.00
2016,06,17,09,09,14.00
2016,06,17,09,10,14.10
2016,06,17,09,11,14.10
2016,06,17,09,12,14.10
2016,06,17,09,13,14.20
2016,06,17,09,14,14.20
2016,06,17,09,15,14.30
2016,06,17,09,16,14.40
2016,06,17,09,17,14.50
2016,06,17,09,18,14.50
2016,06,17,09,19,14.60
2016,06,17,09,20,14.60
2016,06,17,09,21,14.60
2016,06,17,09,22,14.60
2016,06,17,09,23,14.50
2016,06,17,09,24,14.50
2016,06,17,09,25,14.50
2016,06,17,09,26,14.50
2016,06,17,09,27,14.60
2016,06,17,09,28,14.60
2016,06,17,09,29,14.80
2016,06,17,09,30,14.80
2016,06,17,09,31,14.80
2016,06,17,09,32,14.80
2016,06,17,09,33,14.80
2016,06,17,09,34,14.90
2016,06,17,09,35,14.90
2016,06,17,09,36,15.00
2016,06,17,09,37,15.10
2016,06,17,09,38,15.10
2016,06,17,09,39,15.20
2016,06,17,09,40,15.30
2016,06,17,09,41,15.40
2016,06,17,09,42,15.40
2016,06,17,09,43,15.40
2016,06,17,09,44,15.40
2016,06,17,09,45,15.40
2016,06,17,09,46,15.40
2016,06,17,09,47,15.50
2016,06,17,09,48,15.50
2016,06,17,09,49,15.60
2016,06,17,09,50,15.60
2016,06,17,09,51,15.70
2016,06,17,09,52,15.60
2016,06,17,09,53,15.60
2016,06,17,09,54,15.60
2016,06,17,09,55,15.60
2016,06,17,09,56,15.60
2016,06,17,09,57,15.60
2016,06,17,09,58,15.70
2016,06,17,09,59,15.70
2016,06,17,10,00,15.70
2016,06,17,10,01,15.70
2016,06,17,10,02,15.70
2016,06,17,10,03,15.70
2016,06,17,10,04,15.70
2016,06,17,10,05,15.80
2016,06,17,10,06,15.80
2016,06,17,10,07,15.80
2016,06,17,10,08,15.90
2016,06,17,10,09,15.90
2016,06,17,10,10,16.00
2016,06,17,10,11,16.00
2016,06,17,10,12,16.00
2016,06,17,10,13,16.00
2016,06,17,10,14,16.00
2016,06,17,10,15,15.90
2016,06,17,10,16,15.90
2016,06,17,10,17,15.90
2016,06,17,10,18,16.00
2016,06,17,10,19,16.10
2016,06,17,10,20,16.10
2016,06,17,10,21,16.00
2016,06,17,10,22,16.00
2016,06,17,10,23,15.90
2016,06,17,10,24,15.90
2016,06,17,10,25,15.90
2016,06,17,10,26,16.00
2016,06,17,10,27,16.00
2016,06,17,10,28,15.90
2016,06,17,10,29,15.90
2016,06,17,10,30,15.90
2016,06,17,10,31,16.00
2016,06,17,10,32,16.00
2016,06,17,10,33,16.10
2016,06,17,10,34,16.10
2016,06,17,10,35,16.10
2016,06,17,10,36,16.10
2016,06,17,10,37,16.10
2016,06,17,10,38,16.10
2016,06,17,10,39,16.20
2016,06,17,10,40,16.20
2016,06,17,10,41,16.30
2016,06,17,10,42,16.30
2016,06,17,10,43,16.30
2016,06,17,10,44,16.30
2016,06,17,10,45,16.30
2016,06,17,10,46,16.30
2016,06,17,10,47,16.30
2016,06,17,10,48,16.40
2016,06,17,10,49,16.40
2016,06,17,10,50,16.50
2016,06,17,10,51,16.50
2016,06,17,10,52,16.60
2016,06,17,10,53,16.60
2016,06,17,10,54,16.60
2016,06,17,10,55,16.50
2016,06,17,10,56,16.50
2016,06,17,10,57,16.50
2016,06,17,10,58,16.50
2016,06,17,10,59,16.50
2016,06,17,11,00,16.60
2016,06,17,11,01,16.70
2016,06,17,11,02,16.70
2016,06,17,11,03,16.80
2016,06,17,11,04,16.90
2016,06,17,11,05,17.00
2016,06,17,11,06,17.00
2016,06,17,11,07,17.00
2016,06,17,11,08,17.00
2016,06,17,11,09,17.00
2016,06,17,11,10,17.00
2016,06,17,11,11,17.00
2016,06,17,11,12,16.90
2016,06,17,11,13,16.90
2016,06,17,11,14,16.80
2016,06,17,11,15,16.80
2016,06,17,11,16,16.80
2016,06,17,11,17,16.90
2016,06,17,11,18,16.90
2016,06,17,11,19,17.00
2016,06,17,11,20,17.00
2016,06,17,11,21,17.10
2016,06,17,11,22,17.20
2016,06,17,11,23,17.30
2016,06,17,11,24,17.30
2016,06,17,11,25,17.30
2016,06,17,11,26,17.30
2016,06,17,11,27,17.30
2016,06,17,11,28,17.20
2016,06,17,11,29,17.20
2016,06,17,11,30,17.20
2016,06,17,11,31,17.20
2016,06,17,11,32,17.20
2016,06,17,11,33,17.20
2016,06,17,11,34,17.30
2016,06,17,11,35,17.30
2016,06,17,11,36,17.40
2016,06,17,11,37,17.50
2016,06,17,11,38,17.50
2016,06,17,11,39,17.40
2016,06,17,11,40,17.40
2016,06,17,11,41,17.30
2016,06,17,11,42,17.30
2016,06,17,11,43,17.30
2016,06,17,11,44,17.30
2016,06,17,11,45,17.30
2016,06,17,11,46,17.30
2016,06,17,11,47,17.30
2016,06,17,11,48,17.30
2016,06,17,11,49,17.30
2016,06,17,11,50,17.30
2016,06,17,11,51,17.40
2016,06,17,11,52,17.40
2016,06,17,11,53,17.50
2016,06,17,11,54,17.50
2016,06,17,11,55,17.60
2016,06,17,11,56,17.60
2016,06,17,11,57,17.70
2016,06,17,11,58,17.60
2016,06,17,11,59,17.50
2016,06,17,12,00,17.50
2016,06,17,12,01,17.50
2016,06,17,12,02,17.60
2016,06,17,12,03,17.60
2016,06,17,12,04,17.70
2016,06,17,12,05,17.80
2016,06,17,12,06,17.80
2016,06,17,12,07,17.90
2016,06,17,12,08,17.90
2016,06,17,12,09,17.90
2016,06,17,12,10,18.00
2016,06,17,12,11,18.10
2016,06,17,12,12,18.10
2016,06,17,12,13,18.20
2016,06,17,12,14,18.20
2016,06,17,12,15,18.40
2016,06,17,12,16,18.50
2016,06,17,12,17,18.60
2016,06,17,12,18,18.70
2016,06,17,12,19,18.70
2016,06,17,12,20,18.70
2016,06,17,12,21,18.70
2016,06,17,12,22,18.70
2016,06,17,12,23,18.70
2016,06,17,12,24,18.60
2016,06,17,12,25,18.60
2016,06,17,12,26,18.60
2016,06,17,12,27,18.60
2016,06,17,12,28,18.70
2016,06,17,12,29,18.70
2016,06,17,12,30,18.70
2016,06,17,12,31,18.70
2016,06,17,12,32,18.70
2016,06,17,12,33,18.70
2016,06,17,12,34,18.70
2016,06,17,12,35,18.70
2016,06,17,12,36,18.70
2016,06,17,12,37,18.70
2016,06,17,12,38,18.80
2016,06,17,12,39,18.90
2016,06,17,12,40,19.00
2016,06,17,12,41,19.20
2016,06,17,12,42,19.30
2016,06,17,12,43,19.40
2016,06,17,12,44,19.40
2016,06,17,12,45,19.50
2016,06,17,12,46,19.60
2016,06,17,12,47,19.70
2016,06,17,12,48,19.70
2016,06,17,12,49,19.70
2016,06,17,12,50,19.60
2016,06,17,12,51,19.50
2016,06,17,12,52,19.40
2016,06,17,12,53,19.40
2016,06,17,12,54,19.30
2016,06,17,12,55,19.30
2016,06,17,12,56,19.30
2016,06,17,12,57,19.30
2016,06,17,12,58,19.30
2016,06,17,12,59,19.30
2016,06,17,13,00,19.40
2016,06,17,13,01,19.40
2016,06,17,13,02,19.40
2016,06,17,13,03,19.50
2016,06,17,13,04,19.50
2016,06,17,13,05,19.40
2016,06,17,13,06,19.30
2016,06,17,13,07,19.20
2016,06,17,13,08,19.20
2016,06,17,13,09,19.20
2016,06,17,13,10,19.20
2016,06,17,13,11,19.20
2016,06,17,13,12,19.20
2016,06,17,13,13,19.20
2016,06,17,13,14,19.20
2016,06,17,13,15,19.20
2016,06,17,13,16,19.20
2016,06,17,13,17,19.30
2016,06,17,13,18,19.30
2016,06,17,13,19,19.40
2016,06,17,13,20,19.50
2016,06,17,13,21,19.50
2016,06,17,13,22,19.60
2016,06,17,13,23,19.70
2016,06,17,13,24,19.70
2016,06,17,13,25,19.80
2016,06,17,13,26,19.80
2016,06,17,13,27,19.80
2016,06,17,13,28,19.80
2016,06,17,13,29,19.80
2016,06,17,13,30,19.80
2016,06,17,13,31,19.80
2016,06,17,13,32,19.80
2016,06,17,13,33,19.70
2016,06,17,13,34,19.70
2016,06,17,13,35,19.70
2016,06,17,13,36,19.70
2016,06,17,13,37,19.60
2016,06,17,13,38,19.50
2016,06,17,13,39,19.40
2016,06,17,13,40,19.30
2016,06,17,13,41,19.30
2016,06,17,13,42,19.30
2016,06,17,13,43,19.30
2016,06,17,13,44,19.30
2016,06,17,13,45,19.30
2016,06,17,13,46,19.30
2016,06,17,13,47,19.30
2016,06,17,13,48,19.30
2016,06,17,13,49,19.40
2016,06,17,13,50,19.50
2016,06,17,13,51,19.50
2016,06,17,13,52,19.60
2016,06,17,13,53,19.60
2016,06,17,13,54,19.70
2016,06,17,13,55,19.80
2016,06,17,13,56,19.80
2016,06,17,13,57,19.80
2016,06,17,13,58,19.80
2016,06,17,13,59,19.80
2016,06,17,14,00,19.80
2016,06,17,14,01,19.90
2016,06,17,14,02,19.90
2016,06,17,14,03,20.00
2016,06,17,14,04,20.00
2016,06,17,14,05,20.10
2016,06,17,14,06,20.10
2016,06,17,14,07,20.10
2016,06,17,14,08,20.20
2016,06,17,14,09,20.20
2016,06,17,14,10,20.20
2016,06,17,14,11,20.10
2016,06,17,14,12,20.10
2016,06,17,14,13,20.10
2016,06,17,14,14,20.10
2016,06,17,14,15,20.10
2016,06,17,14,16,20.20
2016,06,17,14,17,20.20
2016,06,17,14,18,20.20
2016,06,17,14,19,20.20
2016,06,17,14,20,20.20
2016,06,17,14,21,20.20
2016,06,17,14,22,20.20
2016,06,17,14,23,20.30
2016,06,17,14,24,20.30
2016,06,17,14,25,20.30
2016,06,17,14,26,20.20
2016,06,17,14,27,20.20
2016,06,17,14,28,20.10
2016,06,17,14,29,20.10
2016,06,17,14,30,20.00
2016,06,17,14,31,20.00
2016,06,17,14,32,20.00
2016,06,17,14,33,19.90
2016,06,17,14,34,19.90
2016,06,17,14,35,20.00
2016,06,17,14,36,20.00
2016,06,17,14,37,20.10
2016,06,17,14,38,20.20
2016,06,17,14,39,20.20
2016,06,17,14,40,20.20
2016,06,17,14,41,20.20
2016,06,17,14,42,20.20
2016,06,17,14,43,20.20
2016,06,17,14,44,20.30
2016,06,17,14,45,20.30
2016,06,17,14,46,20.40
2016,06,17,14,47,20.40
2016,06,17,14,48,20.50
2016,06,17,14,49,20.60
2016,06,17,14,50,20.60
2016,06,17,14,51,20.70
2016,06,17,14,52,20.70
2016,06,17,14,53,20.70
2016,06,17,14,54,20.70
2016,06,17,14,55,20.80
2016,06,17,14,56,20.70
2016,06,17,14,57,20.70
2016,06,17,14,58,20.70
2016,06,17,14,59,20.60
2016,06,17,15,00,20.60
2016,06,17,15,01,20.60
2016,06,17,15,02,20.70
2016,06,17,15,03,20.70
2016,06,17,15,04,20.70
2016,06,17,15,05,20.70
2016,06,17,15,06,20.70
2016,06,17,15,07,20.70
2016,06,17,15,08,20.70
2016,06,17,15,09,20.70
2016,06,17,15,10,20.70
2016,06,17,15,11,20.80
2016,06,17,15,12,20.80
2016,06,17,15,13,20.80
2016,06,17,15,14,20.80
2016,06,17,15,15,20.80
2016,06,17,15,16,20.80
2016,06,17,15,17,20.80
2016,06,17,15,18,20.80
2016,06,17,15,19,20.90
2016,06,17,15,20,20.90
2016,06,17,15,21,20.90
2016,06,17,15,22,20.90
2016,06,17,15,23,21.00
2016,06,17,15,24,21.00
2016,06,17,15,25,21.10
2016,06,17,15,26,21.10
2016,06,17,15,27,21.10
2016,06,17,15,28,21.00
2016,06,17,15,29,21.00
2016,06,17,15,30,20.90
2016,06,17,15,31,20.80
2016,06,17,15,32,20.80
2016,06,17,15,33,20.70
2016,06,17,15,34,20.70
2016,06,17,15,35,20.70
2016,06,17,15,36,20.60
2016,06,17,15,37,20.60
2016,06,17,15,38,20.60
2016,06,17,15,39,20.60
2016,06,17,15,40,20.50
2016,06,17,15,41,20.50
2016,06,17,15,42,20.50
2016,06,17,15,43,20.50
2016,06,17,15,44,20.60
2016,06,17,15,45,20.70
2016,06,17,15,46,20.90
2016,06,17,15,47,21.00
2016,06,17,15,48,21.10
2016,06,17,15,49,21.20
2016,06,17,15,50,21.20
2016,06,17,15,51,21.20
2016,06,17,15,52,21.30
2016,06,17,15,53,21.30
2016,06,17,15,54,21.30
2016,06,17,15,55,21.30
2016,06,17,15,56,21.20
2016,06,17,15,57,21.10
2016,06,17,15,58,21.00
2016,06,17,15,59,21.00
2016,06,17,16,00,21.00
2016,06,17,16,01,21.10
2016,06,17,16,02,21.10
2016,06,17,16,03,21.10
2016,06,17,16,04,21.20
2016,06,17,16,05,21.20
2016,06,17,16,06,21.10
2016,06,17,16,07,21.10
2016,06,17,16,08,21.00
2016,06,17,16,09,21.00
2016,06,17,16,10,20.90
2016,06,17,16,11,20.90
2016,06,17,16,12,20.80
2016,06,17,16,13,20.80
2016,06,17,16,14,20.70
2016,06,17,16,15,20.60
2016,06,17,16,16,20.50
2016,06,17,16,17,20.40
2016,06,17,16,18,20.30
2016,06,17,16,19,20.20
2016,06,17,16,20,20.20
2016,06,17,16,21,20.30
2016,06,17,16,22,20.30
2016,06,17,16,23,20.30
2016,06,17,16,24,20.30
2016,06,17,16,25,20.20
2016,06,17,16,26,20.10
2016,06,17,16,27,20.10
2016,06,17,16,28,20.00
2016,06,17,16,29,20.00
2016,06,17,16,30,20.10
2016,06,17,16,31,20.20
2016,06,17,16,32,20.20
2016,06,17,16,33,20.30
2016,06,17,16,34,20.30
2016,06,17,16,35,20.30
2016,06,17,16,36,20.40
2016,06,17,16,37,20.40
2016,06,17,16,38,20.30
2016,06,17,16,39,20.30
2016,06,17,16,40,20.40
2016,06,17,16,41,20.50
2016,06,17,16,42,20.50
2016,06,17,16,43,20.50
2016,06,17,16,44,20.40
2016,06,17,16,45,20.40
2016,06,17,16,46,20.30
2016,06,17,16,47,20.30
2016,06,17,16,48,20.30
2016,06,17,16,49,20.30
2016,06,17,16,50,20.30
2016,06,17,16,51,20.20
2016,06,17,16,52,20.20
2016,06,17,16,53,20.30
2016,06,17,16,54,20.30
2016,06,17,16,55,20.30
2016,06,17,16,56,20.30
2016,06,17,16,57,20.30
2016,06,17,16,58,20.30
2016,06,17,16,59,20.30
2016,06,17,17,00,20.30
2016,06,17,17,01,20.30
2016,06,17,17,02,20.30
2016,06,17,17,03,20.30
2016,06,17,17,04,20.40
2016,06,17,17,05,20.50
2016,06,17,17,06,20.60
2016,06,17,17,07,20.70
2016,06,17,17,08,20.70
2016,06,17,17,09,20.80
2016,06,17,17,10,20.80
2016,06,17,17,11,20.90
2016,06,17,17,12,20.90
2016,06,17,17,13,20.90
2016,06,17,17,14,20.90
2016,06,17,17,15,20.80
2016,06,17,17,16,20.70
2016,06,17,17,17,20.60
2016,06,17,17,18,20.60
2016,06,17,17,19,20.50
2016,06,17,17,20,20.50
2016,06,17,17,21,20.40
2016,06,17,17,22,20.50
2016,06,17,17,23,20.50
2016,06,17,17,24,20.60
2016,06,17,17,25,20.60
2016,06,17,17,26,20.70
2016,06,17,17,27,20.70
2016,06,17,17,28,20.70
2016,06,17,17,29,20.70
2016,06,17,17,30,20.70
2016,06,17,17,31,20.70
2016,06,17,17,32,20.60
2016,06,17,17,33,20.60
2016,06,17,17,34,20.60